[[{"header":{"parameterUnit":"m.s-1","parameterCategory":1,"la1":30.2991,"la2":30.254,"lo1":-89.0895,"lo2":-89.0444,"dy":0.0017,"dx":0.0017,"nx":28,"ny":28,"refTime":"2024-03-31T09:00:00:Z","depth":0,"parameterNumber":2,"parameterNumberName":"U-component_of_WINDS"},"data":[0,0,0,0,0,0,0,0,0,0,0,0,0,0,0,0,0,0,0,0,0,0,0,0,0,0,0,0,0,0,0,0,0,0,0,0,0,0,0,0,0,0,0,0,0,0,0,0,0,0,0,0,0,0,0,0,0,0,-2.4467,-2.4468,0,-2.4545,-2.4546,-2.4547,-2.4513,-2.4511,-2.4509,-2.4508,-2.4592,-2.4596,-2.46,0,0,0,0,0,0,0,0,0,0,0,0,0,-2.4293,-2.4296,-2.4467,-2.4468,-2.4469,-2.4545,-2.4546,-2.4547,-2.4513,-2.4511,-2.4509,-2.4507,-2.4591,-2.4595,-2.46,0,0,0,0,0,0,0,0,0,0,0,0,0,-2.437,-2.4297,-2.4467,-2.4461,-2.4461,-2.4545,-2.4546,-2.4548,-2.4514,-2.4511,-2.4508,-2.4506,-2.4589,-2.4595,-2.4601,-2.4696,0,0,-2.4619,-2.4622,0,0,0,0,0,0,0,0,-2.4365,-2.4376,-2.4461,-2.4462,-2.4462,-2.4516,-2.4516,-2.4597,-2.4515,-2.4494,-2.4507,-2.4504,-2.4569,-2.4577,-2.4598,-2.47,-2.4703,-2.462,-2.4624,-2.4626,-2.4628,0,0,0,0,0,0,0,-2.436,-2.4372,-2.4498,-2.4462,-2.4463,-2.4456,-2.4464,-2.4531,-2.4547,-2.4496,-2.4493,-2.4503,-2.4569,-2.4592,-2.46,-2.4705,-2.462,-2.4625,-2.4629,-2.4631,-2.4889,-2.4892,0,0,0,0,0,0,-2.4354,-2.4368,-2.4496,-2.45,-2.4405,-2.4462,-2.447,-2.4502,-2.4546,-2.455,-2.4505,-2.4501,-2.4583,-2.4593,-2.4603,-2.4717,-2.4626,-2.4632,-2.4635,-2.4886,-2.489,-2.4893,0,0,0,0,0,0,-2.435,-2.4366,-2.4492,-2.4434,-2.4449,-2.4468,-2.4504,-2.4505,-2.4528,-2.4553,-2.4557,-2.4526,-2.4581,-2.4594,-2.4673,-2.4719,-2.4634,-2.464,-2.4882,-2.4887,-2.4891,-2.4946,0,0,0,0,0,0,-2.4346,-2.4365,-2.44,-2.4435,-2.4453,-2.456,-2.4506,-2.4509,-2.4538,-2.4533,-2.4573,-2.4577,-2.458,-2.4664,-2.4679,-2.4726,-2.4645,-2.4878,-2.4884,-2.489,-2.494,-2.4952,-2.4962,0,0,0,0,0,-2.4339,-2.4413,-2.4402,-2.4417,-2.4497,-2.4563,-2.4573,-2.4574,-2.4542,-2.4578,-2.4595,-2.4576,-2.4712,-2.4672,-2.4689,-2.4738,-2.4875,-2.4882,-2.4889,-2.4935,-2.4949,-2.4962,0,0,0,0,0,0,-2.4384,-2.4417,-2.4405,-2.4492,-2.4524,-2.4557,-2.4602,-2.4589,-2.4633,-2.4626,-2.4627,-2.4636,-2.4717,-2.4736,-2.4691,-2.4833,-2.4789,-2.48,-2.4818,-2.4832,-2.4843,-2.4836,-2.465,0,0,0,0,0,-2.4404,-2.4453,-2.448,-2.4554,-2.4571,-2.4584,-2.4613,-2.461,-2.4645,-2.4659,-2.4681,-2.4717,-2.4767,-2.4801,-2.4849,-2.4943,-2.4951,-2.4985,-2.4996,-2.5005,-2.5014,-2.5066,-2.5082,-2.4917,-2.4917,-2.4917,0,0,-2.4445,-2.447,-2.4501,-2.4564,-2.4589,-2.4641,-2.4596,-2.4653,-2.4693,-2.4668,-2.4743,-2.4761,-2.4801,-2.4887,-2.4927,-2.4905,-2.5062,-2.5014,-2.5021,-2.5026,-2.5075,-2.5091,-2.5105,-2.4922,-2.4921,-2.492,0,0,-2.4548,-2.4571,-2.4635,-2.4661,-2.4699,-2.4707,-2.4723,-2.4757,-2.4768,-2.4843,-2.4825,-2.4873,-2.496,-2.4989,-2.5016,-2.513,-2.5115,-2.5146,-2.5204,-2.5254,-2.5267,-2.5278,-2.5319,-2.5334,-2.5155,-2.5155,-2.5155,0,-2.4595,-2.4672,-2.467,-2.4729,-2.4757,-2.4736,-2.4802,-2.4828,-2.488,-2.4901,-2.4876,-2.4985,-2.501,-2.5104,-2.5131,-2.5153,-2.5172,-2.5141,-2.5265,-2.5276,-2.5287,-2.5326,-2.5342,-2.5159,-2.5158,-2.5158,-2.5158,0,-2.4728,-2.4782,-2.483,-2.4879,-2.4913,-2.4975,-2.4984,-2.5019,-2.5014,-2.5025,-2.5103,-2.5132,-2.5186,-2.5208,-2.5205,-2.5302,-2.5287,-2.5264,-2.5219,-2.5306,-2.5343,-2.5358,-2.5164,-2.5162,-2.5161,-2.5161,0,0,-2.486,-2.4908,-2.4926,-2.4948,-2.4989,-2.5031,-2.5093,-2.5144,-2.5174,-2.5212,-2.5264,-2.5339,-2.5317,-2.5347,-2.5347,-2.5391,-2.548,-2.5362,-2.5363,-2.5383,-2.5589,-2.5606,-2.5623,-2.547,-2.5473,-2.5475,-2.5586,0,-2.4966,-2.5072,-2.5072,-2.5171,-2.5221,-2.5202,-2.5256,-2.5288,-2.5301,-2.5346,-2.5361,-2.5414,-2.5381,-2.5399,-2.5442,-2.546,-2.5521,-2.5452,-2.552,-2.5522,-2.551,-2.5643,-2.5661,-2.5764,-2.56,-2.5603,-2.5604,0,-2.5102,-2.5143,-2.5246,-2.5279,-2.5301,-2.5349,-2.5396,-2.544,-2.5476,-2.5482,-2.5516,-2.5509,-2.5573,-2.5527,-2.5616,-2.5569,-2.5597,-2.561,-2.5614,-2.5621,-2.5568,-2.5652,-2.5796,-2.5812,-2.5627,-2.5625,-2.5624,0,-2.5188,-2.5269,-2.5341,-2.5361,-2.5402,-2.5436,-2.5455,-2.5488,-2.5519,-2.5562,-2.5582,-2.5632,-2.5659,-2.5698,-2.5705,-2.5671,-2.5795,-2.575,-2.5803,-2.5803,-2.583,-2.5828,-2.598,-2.5849,-2.5848,-2.5848,-2.5848,0,-2.5306,-2.537,-2.538,-2.5424,-2.5496,-2.5496,-2.5568,-2.5584,-2.5614,-2.5662,-2.565,-2.5696,-2.5703,-2.5751,-2.5757,-2.5831,-2.5843,-2.5851,-2.5852,-2.5852,-2.5851,-2.587,-2.5863,-2.5852,-2.5851,-2.585,-2.585,0,-2.5413,-2.5423,-2.55,-2.5532,-2.5542,-2.5594,-2.5622,-2.5665,-2.5677,-2.5738,-2.5753,-2.5772,-2.5828,-2.5839,-2.5906,-2.591,-2.5997,-2.5991,-2.5984,-2.5984,-2.6037,-2.6031,-2.6206,-2.623,-2.6083,-2.6084,-2.6085,0,-2.5487,-2.5536,-2.5573,-2.5604,-2.5624,-2.5674,-2.5705,-2.5709,-2.5742,-2.5787,-2.5826,-2.588,-2.5924,-2.6015,-2.6035,-2.6086,-2.6081,-2.6139,-2.6089,-2.6088,-2.6082,-2.6079,-2.6084,-2.6149,-2.615,-2.6152,-2.6153,0,-2.5618,-2.562,-2.5664,-2.5711,-2.5748,-2.5786,-2.5821,-2.5848,-2.5856,-2.5894,-2.5951,-2.5984,-2.6052,-2.6107,-2.6158,-2.618,-2.6168,-2.6168,-2.6183,-2.6184,-2.6178,-2.6182,-2.601,-2.6164,-2.6163,-2.6162,-2.6162,-2.6161,-2.5711,-2.5753,-2.5786,-2.5836,-2.5863,-2.5896,-2.5938,-2.5955,-2.6002,-2.6056,-2.6056,-2.6118,-2.6154,-2.6221,-2.6246,-2.6296,-2.6277,-2.6299,-2.6305,-2.631,-2.6315,-2.617,-2.6305,-2.6305,-2.6304,-2.6304,-2.6304,0,-2.584,-2.586,-2.5907,-2.5956,-2.5996,-2.598,-2.6019,-2.6054,-2.6108,-2.6142,-2.6185,-2.6251,-2.6304,-2.6329,-2.6381,-2.6416,-2.6413,-2.643,-2.6428,-2.6433,-2.6328,-2.631,-2.6432,-2.6432,-2.6432,-2.6432,-2.6432,-2.6432,-2.5912,-2.5983,-2.5989,-2.6074,-2.6094,-2.6153,-2.6177,-2.6208,-2.6235,-2.6308,-2.6352,-2.6367,-2.6398,-2.6453,-2.6501,-2.6508,-2.6528,-2.6548,-2.6552,-2.6453,-2.644,-2.6428,-2.641,-2.6552,-2.6552,-2.6652,-2.6653,-2.6654]},{"header":{"parameterUnit":"m.s-1","parameterCategory":1,"la1":30.2991,"la2":30.254,"lo1":-89.0895,"lo2":-89.0444,"dy":0.0017,"dx":0.0017,"nx":28,"ny":28,"refTime":"2024-03-31T09:00:00:Z","depth":0,"parameterNumber":3,"parameterNumberName":"V-component_of_WINDS"},"data":[0,0,0,0,0,0,0,0,0,0,0,0,0,0,0,0,0,0,0,0,0,0,0,0,0,0,0,0,0,0,0,0,0,0,0,0,0,0,0,0,0,0,0,0,0,0,0,0,0,0,0,0,0,0,0,0,0,0,1.2036,1.2037,0,1.2122,1.2123,1.2124,1.2186,1.2186,1.2187,1.2187,1.2273,1.2275,1.2276,0,0,0,0,0,0,0,0,0,0,0,0,0,1.1925,1.1927,1.2036,1.2037,1.2038,1.2121,1.2123,1.2124,1.2186,1.2186,1.2187,1.2187,1.2272,1.2274,1.2276,0,0,0,0,0,0,0,0,0,0,0,0,0,1.1988,1.1928,1.2036,1.2079,1.2084,1.2121,1.2123,1.2124,1.2185,1.2186,1.2187,1.2188,1.2272,1.2274,1.2277,1.2277,0,0,1.2285,1.2286,0,0,0,0,0,0,0,0,1.1985,1.1992,1.2072,1.2076,1.2082,1.2144,1.2115,1.2175,1.2185,1.2147,1.2187,1.2188,1.2229,1.2235,1.225,1.2281,1.2285,1.2285,1.2287,1.2288,1.2289,0,0,0,0,0,0,0,1.198,1.1989,1.207,1.2073,1.2079,1.2094,1.2104,1.2127,1.2182,1.215,1.2155,1.2164,1.2232,1.2247,1.2252,1.2286,1.2285,1.2288,1.2289,1.229,1.2323,1.2322,0,0,0,0,0,0,1.1969,1.1985,1.2067,1.2073,1.2034,1.2095,1.2106,1.2123,1.2182,1.2192,1.2163,1.2167,1.2242,1.2249,1.2255,1.226,1.2288,1.229,1.2292,1.2324,1.2323,1.2322,0,0,0,0,0,0,1.1967,1.1976,1.2064,1.203,1.2042,1.2096,1.2115,1.2124,1.2139,1.2192,1.2202,1.2169,1.2243,1.2251,1.2272,1.2264,1.2292,1.2294,1.2325,1.2324,1.2323,1.227,0,0,0,0,0,0,1.1963,1.1975,1.1976,1.203,1.2044,1.2079,1.2114,1.2125,1.2144,1.2149,1.22,1.2209,1.2244,1.2267,1.2274,1.2268,1.2296,1.2326,1.2324,1.2323,1.2273,1.2267,1.2263,0,0,0,0,0,1.1959,1.1957,1.1976,1.1985,1.2047,1.2079,1.2087,1.2128,1.2143,1.2145,1.2179,1.2207,1.2264,1.2269,1.2277,1.2272,1.2326,1.2325,1.2323,1.2275,1.2268,1.2263,0,0,0,0,0,0,1.1901,1.1965,1.1986,1.2002,1.2034,1.2089,1.2092,1.2119,1.2148,1.2151,1.22,1.2211,1.2226,1.2251,1.2256,1.2276,1.2299,1.2298,1.2259,1.2253,1.2248,1.2242,1.2298,0,0,0,0,0,1.189,1.1911,1.1966,1.1974,1.199,1.2038,1.2053,1.2082,1.2117,1.2131,1.2167,1.22,1.2225,1.224,1.2266,1.2276,1.2288,1.2277,1.2272,1.2267,1.2267,1.2274,1.227,1.2317,1.2317,1.2317,0,0,1.1868,1.1905,1.1916,1.1964,1.1992,1.2013,1.2049,1.2069,1.2085,1.2134,1.2156,1.2183,1.2222,1.2237,1.2246,1.2259,1.2256,1.2265,1.2261,1.2264,1.2272,1.2268,1.2264,1.2316,1.2316,1.2316,0,0,1.1838,1.1868,1.1879,1.1907,1.1949,1.1981,1.1984,1.2034,1.2054,1.2077,1.2115,1.2133,1.2175,1.2202,1.2221,1.2201,1.2228,1.2208,1.2182,1.2188,1.2185,1.2182,1.2175,1.2171,1.2207,1.2207,1.2207,0,1.1804,1.1837,1.1881,1.1899,1.1919,1.1965,1.1976,1.2,1.2049,1.2062,1.2075,1.2129,1.2159,1.2182,1.2176,1.219,1.2194,1.2203,1.2182,1.2179,1.2177,1.2171,1.2168,1.2204,1.2204,1.2205,1.2205,0,1.1794,1.1816,1.182,1.1866,1.1887,1.1901,1.1946,1.1961,1.1988,1.2018,1.204,1.2077,1.2112,1.2119,1.2145,1.2145,1.2152,1.2172,1.2197,1.2169,1.2164,1.2162,1.22,1.2201,1.2202,1.2203,0,0,1.1731,1.1801,1.1802,1.1824,1.1874,1.1891,1.1907,1.1942,1.1954,1.1985,1.2,1.2035,1.2054,1.2076,1.2105,1.2111,1.2092,1.2131,1.2133,1.2123,1.2095,1.2079,1.2076,1.211,1.211,1.211,1.2092,0,1.171,1.1742,1.1781,1.1799,1.182,1.1864,1.1878,1.191,1.1938,1.1959,1.1991,1.2015,1.2039,1.2052,1.206,1.2093,1.2087,1.2095,1.2125,1.2125,1.2114,1.2073,1.2057,1.2038,1.209,1.209,1.2089,0,1.1689,1.1719,1.1739,1.1788,1.1798,1.181,1.1844,1.1864,1.1901,1.1921,1.1945,1.1977,1.1995,1.2016,1.2042,1.2046,1.206,1.2078,1.2079,1.2084,1.2106,1.2077,1.2032,1.203,1.2087,1.2087,1.2087,0,1.1641,1.1687,1.1705,1.1722,1.1779,1.1786,1.181,1.1848,1.1866,1.1895,1.1908,1.1939,1.1956,1.1979,1.2017,1.2029,1.2039,1.2063,1.2057,1.2056,1.2058,1.2057,1.2015,1.2065,1.2066,1.2066,1.2066,0,1.1614,1.1625,1.1685,1.1696,1.1709,1.1754,1.1766,1.1794,1.1827,1.1844,1.1883,1.1898,1.1948,1.1968,1.1998,1.2016,1.2023,1.204,1.2048,1.2037,1.2035,1.2047,1.205,1.2065,1.2065,1.2065,1.2065,0,1.1564,1.1604,1.1627,1.1679,1.1692,1.17,1.1744,1.1756,1.1786,1.1807,1.1815,1.1862,1.1889,1.193,1.1968,1.1988,1.2,1.2013,1.1988,1.1993,1.1985,1.1985,1.195,1.1947,1.1998,1.1997,1.1997,0,1.1544,1.1554,1.1606,1.1621,1.1643,1.1666,1.1684,1.1728,1.1746,1.1788,1.1795,1.1825,1.1851,1.1891,1.1929,1.1958,1.1972,1.1958,1.1977,1.1965,1.1973,1.1972,1.1973,1.1953,1.1953,1.1952,1.1951,0,1.1505,1.1524,1.155,1.1582,1.1603,1.1631,1.166,1.1669,1.1719,1.1737,1.1765,1.1785,1.1824,1.1853,1.1887,1.1911,1.194,1.1945,1.1945,1.1935,1.192,1.1928,1.1977,1.1946,1.1946,1.1947,1.1947,1.1947,1.147,1.1481,1.1519,1.1546,1.1573,1.1599,1.1613,1.1645,1.1669,1.1705,1.1729,1.1755,1.1791,1.1841,1.1863,1.1884,1.1896,1.1896,1.1897,1.1896,1.1892,1.1916,1.189,1.1891,1.1891,1.1891,1.1891,0,1.1434,1.146,1.1485,1.1525,1.1546,1.157,1.1604,1.162,1.1642,1.1674,1.1699,1.173,1.1758,1.1797,1.1828,1.1837,1.1851,1.1844,1.1844,1.1849,1.1879,1.1876,1.1832,1.1832,1.1832,1.1832,1.1832,1.1832,1.1417,1.1437,1.146,1.1493,1.152,1.1546,1.1563,1.1587,1.1613,1.1646,1.167,1.1695,1.173,1.1763,1.179,1.1801,1.181,1.1799,1.1814,1.1842,1.1847,1.1852,1.185,1.1801,1.1801,1.1783,1.1782,1.1782]}]]